This is the latest recevied weather packets stored in our database for station/object IZ5MMH-14. If no packets are shown the sender has not sent any weather packets the latest 10 day(s).
| Time | Temp. | Humidity | Pressure | Rain* | Wind** | Luminosity | Snow |
|---|---|---|---|---|---|---|---|
| 1777849799 | 18.33° C | 96% | 1018.9 hPa | - | - | - | - |
| 1777849199 | 18.33° C | 96% | 1018.9 hPa | - | - | - | - |
| 1777848599 | 18.33° C | 96% | 1018.9 hPa | - | - | - | - |
| 1777847999 | 18.33° C | 97% | 1019 hPa | - | - | - | - |
| 1777847399 | 18.33° C | 97% | 1019 hPa | - | - | - | - |
| 1777846799 | 17.78° C | 97% | 1019.1 hPa | - | - | - | - |
| 1777845610 | 18.33° C | 95% | 1019.1 hPa | - | - | - | - |
| 1777845010 | 18.33° C | 94% | 1019.3 hPa | - | - | - | - |
| 1777844410 | 18.33° C | 95% | 1019.2 hPa | - | - | - | - |
| 1777843810 | 17.78° C | 96% | 1019.1 hPa | - | - | - | - |
| 1777843210 | 17.78° C | 96% | 1019.2 hPa | - | - | - | - |
| 1777842610 | 17.78° C | 93% | 1019.2 hPa | - | - | - | - |
| 1777842010 | 17.78° C | 92% | 1019.1 hPa | - | - | - | - |
| 1777841410 | 17.78° C | 90% | 1019.2 hPa | - | - | - | - |
| 1777840810 | 17.22° C | 87% | 1019.3 hPa | - | - | - | - |
| 1777840210 | 17.78° C | 85% | 1019.2 hPa | - | - | - | - |
| 1777839610 | 17.22° C | 83% | 1019.1 hPa | - | - | - | - |
| 1777839010 | 17.78° C | 82% | 1019 hPa | - | - | - | - |
| 1777838410 | 17.78° C | 84% | 1019.1 hPa | - | - | - | - |
| 1777837810 | 18.33° C | 86% | 1019 hPa | - | - | - | - |
| 1777837210 | 18.33° C | 81% | 1018.9 hPa | - | - | - | - |
| 1777836610 | 19.44° C | 75% | 1018.9 hPa | - | - | - | - |
| 1777836010 | 19.44° C | 73% | 1018.8 hPa | - | - | - | - |
| 1777835410 | 19.44° C | 73% | 1018.8 hPa | - | - | - | - |
| 1777834810 | 18.89° C | 71% | 1018.7 hPa | - | - | - | - |
* Rain since midnight (hover to see other rain measurements)
** Current wind speed in m/s (hover to see current wind gust speed)